Home   Weather   Albany   Past weeks

Flag for USA Past Weather in Albany, New York, USA — Yesterday and Last 2 Weeks

Now
68 °F

Scattered clouds.


Feels Like: 68 °F
Forecast: 58 / 81 °F
Wind: No wind

Location: Albany County Airport

Current Time: Aug 30, 2016 at 11:06:19 AM

Latest Report: Aug 30, 2016 at 9:51 AM


Visibility: 10 mi

Pressure: 30.19 "Hg

Humidity: 70%

Dew Point: 58 °F

Location of AlbanyLocation

Past Weather in Albany — Graph

°F

Albany Temperature Yesterday

Maximum temperature yesterday: 83 °F (at 1:51 PM)
Minimum temperature yesterday: 66 °F (at 11:51 PM)
Average temperature yesterday: 76 °F

High & Low Weather Summary for the Past Weeks

 TemperatureHumidityPressure
High87 °F (Aug 20, 2:51 PM)97% (Aug 22, 1:51 AM)30.32 "Hg (Aug 22, 1:51 AM)
Low52 °F (Aug 23, 3:51 AM)39% (Aug 20, 4:51 PM)29.75 "Hg (Aug 21, 3:51 PM)
Average73 °F70%30.05 "Hg
* Reported Aug 15 9:51 AM — Aug 30 9:51 AM, Albany, Weather by CustomWeather, © 2016

Note: Actual official high and low records may vary slightly from our data, if they occured in-between our weather recording intervals... More about our weather records

Advertising

Albany Weather History for the Previous 24 Hours

Scroll right to see more
 ConditionsComfort  
Time TempWeatherWind HumidityBarometerVisibility
9:51 AM
Tue, Aug 30
68 °FScattered clouds.No wind70%30.19 "Hg10 mi
8:51 AM66 °FScattered clouds.3 mph75%30.19 "Hg10 mi
7:51 AM62 °FScattered clouds.No wind83%30.20 "Hg10 mi
6:51 AM56 °FLight fog.5 mph90%30.19 "Hg10 mi
5:51 AM54 °FLight fog.No wind93%30.19 "Hg10 mi
4:51 AM58 °FClear.No wind90%30.18 "Hg10 mi
3:51 AM59 °FFog.No wind90%30.17 "Hg10 mi
2:51 AM59 °FPassing clouds.No wind84%30.17 "Hg10 mi
1:51 AM62 °FPassing clouds.3 mph80%30.18 "Hg10 mi
12:51 AM64 °FPassing clouds.6 mph75%30.18 "Hg10 mi
11:51 PM
Mon, Aug 29
66 °FPassing clouds.5 mph70%30.18 "Hg10 mi
10:51 PM67 °FPassing clouds.5 mph68%30.18 "Hg10 mi
9:51 PM69 °FPassing clouds.6 mph66%30.17 "Hg10 mi
8:51 PM71 °FPassing clouds.5 mph61%30.16 "Hg10 mi
7:51 PM73 °FPartly sunny.5 mph59%30.13 "Hg10 mi
6:51 PM79 °FScattered clouds.8 mph45%30.12 "Hg10 mi
5:51 PM81 °FPassing clouds.8 mph41%30.11 "Hg10 mi
4:51 PM83 °FPassing clouds.10 mph40%30.10 "Hg10 mi
3:51 PM82 °FScattered clouds.12 mph40%30.10 "Hg10 mi
2:51 PM82 °FPassing clouds.8 mph40%30.11 "Hg10 mi
1:51 PM83 °FScattered clouds.17 mph44%30.11 "Hg10 mi
12:51 PM82 °FScattered clouds.10 mph48%30.12 "Hg10 mi
11:51 AM81 °FScattered clouds.12 mph53%30.13 "Hg10 mi
Weather by CustomWeather, © 2016

See weather overviewHow to use our weather pages